Weather History for Kenai, AK

Change the Weather History Date:

Friday, June 8, 2012

  Actual Average Record
Temperature  
Mean Temperature 50 °F -  
Max Temperature 55 °F 56 °F 69 °F (1960)
Min Temperature 46 °F 41 °F 32 °F (1959)
Degree Days  
Heating Degree Days 14    
Moisture  
Dew Point 41 °F    
Average Humidity 71    
Maximum Humidity 80    
Minimum Humidity 62    
Precipitation  
Precipitation 0.00 in - - ()
Sea Level Pressure  
Sea Level Pressure 29.79 in    
Wind  
Wind Speed 9 mph (SW)    
Max Wind Speed 18 mph    
Max Gust Speed 25 mph    
Visibility 10 miles    
Events      
Averages and records for this station are not official NWS values.
T = Trace of Precipitation, MM = Missing Value Source: NWS Daily Summary

Daily Weather History Graph

Daily Weather History Graph

Search for Another Location

Airport:

Trip Planner

Search our weather history database for the weather conditions in past years. The results will help you decide how hot, cold, wet, or windy it might be!

Date:

Astronomy

Jun. 08, 2012 Rise Set
Actual Time 4:38 AM AKDT 11:30 PM AKDT
Civil Twilight 2:49 AM AKDT 1:21 AM AKDT
Nautical Twilight Sun does not rise Sun does not rise
Astronomical Twilight Sun does not rise Sun does not rise
Moon 1:21 AM AKDT (6/8) 10:40 AM AKDT (6/8)
Length of Visible Light 22h 31m
Length of Day
18h 52m
Waning Gibbous, 76% of the Moon is Illuminated
Jun 8
Waning Gibbous
Jun 11
Last Quarter
Jun 19
New
Jun 26
First Quarter
Jul 3
Full

Hourly Weather History & Observations

Time (AKDT) Temp. Dew Point Humidity Pressure Visibility Wind Dir Wind Speed Gust Speed Precip Events Conditions
12:53 AM 48.0 °F 39.9 °F 74% 29.76 in 10.0 mi South 10.4 mph - N/A   Scattered Clouds
1:53 AM 46.9 °F 37.9 °F 71% 29.76 in 10.0 mi South 5.8 mph - N/A   Scattered Clouds
2:53 AM 48.0 °F 39.0 °F 71% 29.74 in 10.0 mi South 5.8 mph - N/A   Overcast
3:53 AM 48.9 °F 39.0 °F 69% 29.73 in 10.0 mi South 8.1 mph - N/A   Overcast
4:53 AM 48.0 °F 39.9 °F 74% 29.72 in 10.0 mi South 5.8 mph - N/A   Mostly Cloudy
5:53 AM 48.0 °F 39.9 °F 74% 29.72 in 10.0 mi South 6.9 mph - N/A   Overcast
6:53 AM 48.9 °F 39.9 °F 71% 29.70 in 10.0 mi SSW 5.8 mph - N/A   Overcast
7:53 AM 50.0 °F 39.9 °F 68% 29.71 in 10.0 mi SSW 5.8 mph - N/A   Overcast
8:53 AM 53.1 °F 41.0 °F 64% 29.71 in 10.0 mi SW 5.8 mph - N/A   Overcast
9:53 AM 54.0 °F 41.0 °F 62% 29.71 in 10.0 mi SW 6.9 mph - N/A   Overcast
10:53 AM 53.1 °F 43.0 °F 69% 29.71 in 10.0 mi SW 9.2 mph - N/A   Overcast
11:53 AM 53.1 °F 43.0 °F 69% 29.72 in 10.0 mi SW 10.4 mph - N/A   Overcast
12:53 PM 55.9 °F 43.0 °F 62% 29.73 in 10.0 mi WSW 8.1 mph - N/A   Overcast
1:53 PM 53.1 °F 43.0 °F 69% 29.74 in 10.0 mi SW 9.2 mph - N/A   Overcast
2:53 PM 53.1 °F 43.0 °F 69% 29.76 in 10.0 mi WSW 11.5 mph - N/A   Overcast
3:53 PM 52.0 °F 42.1 °F 69% 29.78 in 10.0 mi SW 17.3 mph 24.2 mph N/A   Overcast
4:53 PM 52.0 °F 42.1 °F 69% 29.80 in 10.0 mi SW 17.3 mph 25.3 mph N/A   Partly Cloudy
5:53 PM 51.1 °F 42.1 °F 71% 29.82 in 10.0 mi SW 12.7 mph 23.0 mph N/A   Partly Cloudy
6:53 PM 50.0 °F 43.0 °F 77% 29.86 in 10.0 mi SW 16.1 mph 24.2 mph N/A   Overcast
7:53 PM 48.0 °F 42.1 °F 80% 29.89 in 10.0 mi SW 13.8 mph - N/A   Overcast
8:53 PM 48.9 °F 41.0 °F 74% 29.92 in 10.0 mi SSW 15.0 mph 20.7 mph N/A   Overcast
9:53 PM 48.0 °F 41.0 °F 77% 29.95 in 10.0 mi SW 18.4 mph 21.9 mph N/A   Overcast
10:53 PM 46.9 °F 41.0 °F 80% 29.98 in 10.0 mi SSW 13.8 mph - N/A   Overcast
11:53 PM 46.9 °F 41.0 °F 80% 29.99 in 10.0 mi SSW 11.5 mph - N/A   Overcast